Location: Newark
(46.7636°N, 1.8358°W)
Time: 14:27:00
(UTC+00:00)

Vanguard 2 Rocket - Pass Details

Date: 17 October 2019
Orbit: 554 x 3326 km, 32.9° (Epoch: 13 November)

Event Time Altitude Azimuth Distance (km) Brightness Sun altitude
Rises 06:37:27 0° 174° (S) 6,440 11.5 0.8°
Reaches altitude 10° 06:46:00 10° 149° (SSE) 5,944 11.9 2.3°
Maximum altitude 06:52:18 13° 129° (SE) 5,954 12.5 3.3°
Drops below altitude 10° 06:58:53 10° 110° (ESE) 6,282 14.2 4.4°
Sets 07:08:28 0° 87° (E) 7,204 12.9 5.9°
